Weather History for Moriarty, NM

Change the Weather History Date:

Tuesday, November 20, 2012

  Actual Average (KABQ) Record (KABQ)
Temperature  
Mean Temperature 39 °F 43 °F  
Max Temperature 65 °F 54 °F 73 °F (2007)
Min Temperature 13 °F 32 °F 14 °F (1985)
Degree Days  
Heating Degree Days 26 22  
Month to date heating degree days 360  
Since 1 July heating degree days 626  
Cooling Degree Days 0 0  
Month to date cooling degree days 0  
Year to date cooling degree days 1322  
Moisture  
Dew Point 9 °F    
Average Humidity 34    
Maximum Humidity 68    
Minimum Humidity 10    
Precipitation  
Precipitation 0.00 in 0.02 in 0.80 in (1905)
Month to date precipitation 0.39  
Year to date precipitation 8.77  
Snow  
Snow 0.00 in - - ()
Month to date snowfall  
Since 1 July snowfall  
Since 1 September snowfall  
Snow Depth -    
Sea Level Pressure  
Sea Level Pressure 30.33 in    
Wind  
Wind Speed 3 mph (North)    
Max Wind Speed 9 mph    
Max Gust Speed -    
Visibility 10 miles    
Events      
T = Trace of Precipitation, MM = Missing Value Source: NWS Daily Summary

Daily Weather History Graph

Daily Weather History Graph

Search for Another Location

Airport:

Trip Planner

Search our weather history database for the weather conditions in past years. The results will help you decide how hot, cold, wet, or windy it might be!

Date:

Astronomy

Nov. 20, 2012 Rise Set
Actual Time 6:43 AM MST 4:55 PM MST
Civil Twilight 6:16 AM MST 5:22 PM MST
Nautical Twilight 5:45 AM MST 5:53 PM MST
Astronomical Twilight 5:15 AM MST 6:23 PM MST
Moon 12:27 PM MST No Moon Set
Length of Visible Light 11h 06m
Length of Day
10h 11m
First Quarter, 52% of the Moon is Illuminated
Nov 20
First Quarter
Nov 28
Full
Dec 6
Last Quarter
Dec 13
New
Dec 19
First Quarter

Hourly Weather History & Observations

Time (MST) Temp. Windchill Dew Point Humidity Pressure Visibility Wind Dir Wind Speed Gust Speed Precip Events Conditions
12:15 AM 20.3 °F 15.4 °F 8.4 °F 60% 30.36 in 10.0 mi North 3.5 mph - N/A   Clear
12:35 AM 21.6 °F - 10.2 °F 62% 30.35 in 10.0 mi Calm Calm - N/A   Clear
12:55 AM 17.1 °F 11.7 °F 5.4 °F 60% 30.35 in 10.0 mi NNE 3.5 mph - N/A   Clear
1:15 AM 17.2 °F 10.2 °F 7.2 °F 65% 30.35 in 10.0 mi NNE 4.6 mph - N/A   Clear
1:35 AM 19.4 °F 11.5 °F 9.3 °F 65% 30.35 in 10.0 mi NE 5.8 mph - N/A   Clear
5:15 AM 16.0 °F - 6.4 °F 66% 30.35 in 10.0 mi Calm Calm - N/A   Clear
5:35 AM 16.5 °F 11.0 °F 7.7 °F 68% 30.35 in 10.0 mi NNE 3.5 mph - N/A   Clear
5:55 AM 16.2 °F - 5.7 °F 64% 30.37 in 10.0 mi Calm Calm - N/A   Clear
6:15 AM 16.5 °F 8.1 °F 5.9 °F 63% 30.37 in 10.0 mi South 5.8 mph - N/A   Clear
6:35 AM 15.6 °F - 6.3 °F 67% 30.37 in 10.0 mi Calm Calm - N/A   Clear
6:55 AM 13.1 °F 5.4 °F 4.1 °F 67% 30.37 in 10.0 mi North 4.6 mph - N/A   Clear
7:15 AM 17.1 °F 6.6 °F 7.7 °F 67% 30.38 in 10.0 mi North 8.1 mph - N/A   Clear
7:35 AM 23.0 °F 17.0 °F 10.9 °F 60% 30.38 in 10.0 mi NNE 4.6 mph - N/A   Clear
7:55 AM 26.4 °F - 12.2 °F 55% 30.38 in 10.0 mi Calm Calm - N/A   Clear
8:15 AM 34.0 °F - 15.8 °F 47% 30.38 in 10.0 mi Calm Calm - N/A   Clear
8:35 AM 40.3 °F 37.1 °F 18.7 °F 42% 30.38 in 10.0 mi North 4.6 mph - N/A   Clear
8:55 AM 44.4 °F 42.9 °F 19.0 °F 36% 30.39 in 10.0 mi SSE 3.5 mph - N/A   Clear
9:15 AM 43.7 °F 42.1 °F 18.5 °F 36% 30.39 in 10.0 mi South 3.5 mph - N/A   Clear
9:35 AM 47.1 °F - 19.4 °F 33% 30.39 in 10.0 mi SSE 3.5 mph - N/A   Clear
9:55 AM 49.6 °F - 19.4 °F 30% 30.39 in 10.0 mi South 4.6 mph - N/A   Clear
10:15 AM 51.1 °F - 19.4 °F 29% 30.39 in 10.0 mi SSE 3.5 mph - N/A   Clear
10:35 AM 52.2 °F - 19.4 °F 28% 30.38 in 10.0 mi Calm Calm - N/A   Clear
10:55 AM 53.8 °F - 19.6 °F 26% 30.37 in 10.0 mi Calm Calm - N/A   Clear
11:15 AM 56.7 °F - 18.7 °F 23% 30.35 in 10.0 mi Calm Calm - N/A   Clear
11:35 AM 58.3 °F - 18.3 °F 21% 30.35 in 10.0 mi WNW 3.5 mph - N/A   Clear
12:15 PM 61.7 °F - 14.2 °F 16% 30.32 in 10.0 mi Calm Calm - N/A   Clear
12:35 PM 63.0 °F - 13.3 °F 14% 30.31 in 10.0 mi Calm Calm - N/A   Clear
12:55 PM 63.0 °F - 11.7 °F 13% 30.29 in 10.0 mi WSW 5.8 mph - N/A   Clear
1:15 PM 64.8 °F - 11.1 °F 12% 30.29 in 10.0 mi West 3.5 mph - N/A   Clear
1:35 PM 64.2 °F - 8.2 °F 11% 30.28 in 10.0 mi NW 3.5 mph - N/A   Clear
1:55 PM 64.9 °F - 7.5 °F 10% 30.28 in 10.0 mi Calm Calm - N/A   Clear
2:15 PM 65.3 °F - 6.4 °F 10% 30.27 in 10.0 mi Calm Calm - N/A   Clear
2:35 PM 65.7 °F - 7.3 °F 10% 30.27 in 10.0 mi Calm Calm - N/A   Clear
2:55 PM 65.8 °F - 7.3 °F 10% 30.26 in 10.0 mi Calm Calm - N/A   Clear
3:15 PM 65.3 °F - 7.3 °F 10% 30.26 in 10.0 mi South 4.6 mph - N/A   Clear
3:35 PM 64.8 °F - 7.7 °F 11% 30.26 in 10.0 mi SW 6.9 mph - N/A   Clear
3:55 PM 64.2 °F - 9.3 °F 12% 30.27 in 10.0 mi SSW 4.6 mph - N/A   Clear
4:15 PM 62.4 °F - 10.2 °F 13% 30.27 in 10.0 mi South 9.2 mph - N/A   Clear
4:35 PM 59.4 °F - 8.6 °F 13% 30.27 in 10.0 mi South 8.1 mph - N/A   Clear
4:55 PM 54.9 °F - 7.0 °F 15% 30.27 in 10.0 mi SSE 5.8 mph - N/A   Clear
5:15 PM 50.4 °F - 5.2 °F 16% 30.27 in 10.0 mi South 6.9 mph - N/A   Clear
5:55 PM 44.2 °F 41.8 °F 5.5 °F 20% 30.29 in 10.0 mi South 4.6 mph - N/A   Clear
6:15 PM 44.4 °F - 7.7 °F 22% 30.29 in 10.0 mi Calm Calm - N/A   Clear
6:35 PM 44.8 °F - 8.6 °F 23% 30.29 in 10.0 mi Calm Calm - N/A   Clear
6:55 PM 46.6 °F - 9.0 °F 22% 30.29 in 10.0 mi West 4.6 mph - N/A   Clear
7:15 PM 39.2 °F - 5.7 °F 25% 30.30 in 10.0 mi Calm Calm - N/A   Clear
7:35 PM 35.6 °F - 5.5 °F 28% 30.31 in 10.0 mi Calm Calm - N/A   Clear
7:55 PM 34.9 °F 32.0 °F 4.3 °F 28% 30.31 in 10.0 mi North 3.5 mph - N/A   Clear
8:15 PM 31.5 °F 24.9 °F 3.6 °F 31% 30.31 in 10.0 mi North 6.9 mph - N/A   Clear
8:35 PM 31.6 °F 26.0 °F 3.4 °F 30% 30.31 in 10.0 mi NE 5.8 mph - N/A   Clear
8:55 PM 30.9 °F 26.2 °F 4.6 °F 33% 30.31 in 10.0 mi NE 4.6 mph - N/A   Clear
9:15 PM 30.7 °F 26.0 °F 4.1 °F 32% 30.31 in 10.0 mi NE 4.6 mph - N/A   Clear
9:35 PM 29.5 °F - 3.4 °F 33% 30.32 in 10.0 mi Calm Calm - N/A   Clear
9:55 PM 27.1 °F 21.8 °F 2.1 °F 34% 30.31 in 10.0 mi North 4.6 mph - N/A   Clear
10:15 PM 27.5 °F 23.6 °F 2.7 °F 35% 30.32 in 10.0 mi NNW 3.5 mph - N/A   Clear
10:35 PM 26.6 °F 20.0 °F 2.7 °F 36% 30.31 in 10.0 mi NNW 5.8 mph - N/A   Clear
10:55 PM 23.9 °F 19.5 °F 0.7 °F 37% 30.31 in 10.0 mi North 3.5 mph - N/A   Clear
11:15 PM 22.3 °F 16.1 °F 0.7 °F 39% 30.31 in 10.0 mi North 4.6 mph - N/A   Clear
11:35 PM 23.0 °F - 2.8 °F 42% 30.31 in 10.0 mi Calm Calm - N/A   Clear
11:55 PM 21.9 °F - 1.8 °F 42% 30.31 in 10.0 mi Calm Calm - N/A   Clear